Location: Luna
(33.8188°N, 108.9564°W)
Time: 09:05:31
(UTC+00:00)

CSL-04 DEB - Visible Passes

Search period start: 08 December 2023 00:00
Search period end: 18 December 2023 00:00
Orbit: 677 x 699 km, 98.7° (Epoch: 07 December)

Date Brightness Start Highest point End Pass type
(mag) Time Alt. Az. Time Alt. Az. Time Alt. Az.
09 Dec ? 00:43:35 10° NNW 00:46:38 17° WNW 00:49:40 10° WSW visible
12 Dec ? 01:02:09 10° NW 01:03:43 12° WNW 01:05:18 10° W visible
14 Dec ? 00:39:41 10° NNW 00:43:00 20° WNW 00:46:21 10° WSW visible
17 Dec ? 00:57:54 10° NW 01:00:06 13° WNW 01:02:17 10° W visible
